TimeCST,TemperatureF,Dew PointF,Humidity,Sea Level PressureIn,VisibilityMPH,Wind Direction,Wind SpeedMPH,Gust SpeedMPH,PrecipitationIn,Events,Conditions,WindDirDegrees,DateUTC
12:15 AM,39.2,32.0,75,30.19,10.0,ESE,5.8,-,N/A,,Clear,110,2013-02-02 06:15:00
12:55 AM,37.4,32.0,81,30.19,10.0,ESE,5.8,-,N/A,,Clear,120,2013-02-02 06:55:00
1:15 AM,37.4,32.0,81,30.18,10.0,ESE,6.9,-,N/A,,Clear,120,2013-02-02 07:15:00
1:55 AM,37.4,30.2,75,30.18,10.0,ESE,5.8,-,N/A,,Clear,120,2013-02-02 07:55:00
2:15 AM,37.4,32.0,81,30.18,10.0,SE,5.8,-,N/A,,Clear,130,2013-02-02 08:15:00
2:35 AM,37.4,32.0,81,30.17,10.0,SE,8.1,-,N/A,,Clear,140,2013-02-02 08:35:00
2:55 AM,37.4,30.2,75,30.18,10.0,SE,5.8,-,N/A,,Clear,140,2013-02-02 08:55:00
3:15 AM,37.4,32.0,81,30.18,10.0,SSE,4.6,-,N/A,,Clear,150,2013-02-02 09:15:00
3:35 AM,37.4,30.2,75,30.18,10.0,SSE,4.6,-,N/A,,Clear,160,2013-02-02 09:35:00
3:55 AM,39.2,30.2,70,30.17,10.0,SSE,5.8,-,N/A,,Clear,160,2013-02-02 09:55:00
4:15 AM,39.2,30.2,70,30.17,10.0,South,4.6,-,N/A,,Clear,170,2013-02-02 10:15:00
4:35 AM,37.4,30.2,75,30.17,10.0,Calm,Calm,-,N/A,,Clear,0,2013-02-02 10:35:00
4:55 AM,35.6,30.2,81,30.17,10.0,Calm,Calm,-,N/A,,Clear,0,2013-02-02 10:55:00
5:15 AM,35.6,30.2,81,30.18,10.0,Calm,Calm,-,N/A,,Clear,0,2013-02-02 11:15:00
5:35 AM,35.6,30.2,81,30.19,10.0,Calm,Calm,-,N/A,,Clear,0,2013-02-02 11:35:00
5:55 AM,35.6,30.2,81,30.19,10.0,Calm,Calm,-,N/A,,Clear,0,2013-02-02 11:55:00
6:15 AM,35.6,30.2,81,30.22,10.0,North,6.9,-,N/A,,Clear,10,2013-02-02 12:15:00
6:35 AM,35.6,32.0,87,30.22,10.0,North,4.6,-,N/A,,Clear,360,2013-02-02 12:35:00
6:55 AM,35.6,32.0,87,30.22,10.0,Calm,Calm,-,N/A,,Clear,0,2013-02-02 12:55:00
7:15 AM,35.6,30.2,81,30.23,10.0,Calm,Calm,-,N/A,,Clear,0,2013-02-02 13:15:00
7:35 AM,33.8,30.2,87,30.24,10.0,NNW,3.5,-,N/A,,Clear,340,2013-02-02 13:35:00
7:55 AM,33.8,30.2,87,30.25,10.0,NW,4.6,-,N/A,,Clear,310,2013-02-02 13:55:00
8:15 AM,35.6,32.0,87,30.26,10.0,Calm,Calm,-,N/A,,Clear,0,2013-02-02 14:15:00
8:35 AM,37.4,32.0,81,30.26,10.0,Calm,Calm,-,N/A,,Clear,0,2013-02-02 14:35:00
8:55 AM,41.0,32.0,70,30.26,10.0,NW,5.8,-,N/A,,Clear,310,2013-02-02 14:55:00
9:15 AM,42.8,32.0,66,30.26,10.0,NW,5.8,-,N/A,,Clear,310,2013-02-02 15:15:00
9:35 AM,42.8,33.8,70,30.28,10.0,NW,4.6,-,N/A,,Clear,320,2013-02-02 15:35:00
9:55 AM,46.4,33.8,62,30.28,10.0,NNW,10.4,-,0.01,,Clear,340,2013-02-02 15:55:00
10:15 AM,48.2,35.6,62,30.29,10.0,NNW,5.8,-,N/A,,Clear,340,2013-02-02 16:15:00
10:55 AM,51.8,35.6,54,30.30,10.0,North,11.5,-,N/A,,Clear,350,2013-02-02 16:55:00
11:15 AM,51.8,35.6,54,30.30,10.0,NNW,10.4,-,N/A,,Clear,340,2013-02-02 17:15:00
11:35 AM,53.6,35.6,51,30.30,10.0,North,10.4,-,N/A,,Clear,360,2013-02-02 17:35:00
11:55 AM,55.4,37.4,51,30.30,10.0,NNE,10.4,-,N/A,,Clear,20,2013-02-02 17:55:00
12:15 PM,55.4,37.4,51,30.30,10.0,North,13.8,17.3,N/A,,Clear,10,2013-02-02 18:15:00
12:35 PM,55.4,37.4,51,30.29,10.0,North,9.2,-,N/A,,Clear,360,2013-02-02 18:35:00
12:55 PM,57.2,37.4,48,30.29,10.0,North,13.8,-,N/A,,Clear,10,2013-02-02 18:55:00
1:15 PM,57.2,37.4,48,30.28,10.0,North,12.7,-,N/A,,Clear,10,2013-02-02 19:15:00
1:35 PM,59.0,39.2,48,30.27,10.0,NNW,12.7,16.1,N/A,,Clear,330,2013-02-02 19:35:00
2:15 PM,60.8,39.2,45,30.28,10.0,NNW,9.2,-,N/A,,Clear,340,2013-02-02 20:15:00
2:35 PM,60.8,39.2,45,30.27,10.0,WNW,9.2,-,N/A,,Clear,300,2013-02-02 20:35:00
2:55 PM,60.8,39.2,45,30.27,10.0,NNW,8.1,-,N/A,,Clear,340,2013-02-02 20:55:00
3:15 PM,60.8,37.4,42,30.27,10.0,WNW,6.9,-,N/A,,Clear,290,2013-02-02 21:15:00
3:35 PM,60.8,37.4,42,30.27,10.0,NNW,11.5,16.1,N/A,,Clear,340,2013-02-02 21:35:00
3:55 PM,60.8,37.4,42,30.27,10.0,NNW,6.9,-,N/A,,Clear,330,2013-02-02 21:55:00
4:15 PM,60.8,37.4,42,30.27,10.0,WNW,5.8,-,N/A,,Clear,300,2013-02-02 22:15:00
4:35 PM,60.8,37.4,42,30.27,10.0,WNW,9.2,-,N/A,,Clear,300,2013-02-02 22:35:00
4:55 PM,60.8,37.4,42,30.27,10.0,WNW,8.1,-,N/A,,Clear,300,2013-02-02 22:55:00
5:15 PM,59.0,37.4,45,30.27,10.0,NW,9.2,-,N/A,,Clear,310,2013-02-02 23:15:00
5:55 PM,55.4,37.4,51,30.28,10.0,NW,4.6,-,N/A,,Clear,310,2013-02-02 23:55:00
6:15 PM,53.6,35.6,51,30.28,10.0,WNW,3.5,-,N/A,,Clear,290,2013-02-03 00:15:00
6:55 PM,53.6,37.4,54,30.29,10.0,West,3.5,-,N/A,,Clear,270,2013-02-03 00:55:00
7:15 PM,51.8,35.6,54,30.29,10.0,WSW,3.5,-,N/A,,Clear,240,2013-02-03 01:15:00
7:35 PM,51.8,37.4,58,30.29,10.0,WSW,3.5,-,N/A,,Clear,240,2013-02-03 01:35:00
7:55 PM,51.8,37.4,58,30.29,10.0,Calm,Calm,-,N/A,,Clear,0,2013-02-03 01:55:00
8:15 PM,48.2,35.6,62,30.29,10.0,WSW,3.5,-,N/A,,Clear,240,2013-02-03 02:15:00
8:35 PM,48.2,35.6,62,30.29,10.0,Calm,Calm,-,N/A,,Clear,0,2013-02-03 02:35:00
8:55 PM,46.4,35.6,66,30.30,10.0,Calm,Calm,-,N/A,,Clear,0,2013-02-03 02:55:00
9:15 PM,46.4,35.6,66,30.30,10.0,Calm,Calm,-,N/A,,Clear,0,2013-02-03 03:15:00
9:35 PM,46.4,35.6,66,30.30,10.0,West,4.6,-,N/A,,Clear,260,2013-02-03 03:35:00
9:55 PM,44.6,35.6,71,30.31,10.0,West,3.5,-,N/A,,Clear,270,2013-02-03 03:55:00
10:15 PM,44.6,35.6,71,30.31,10.0,West,3.5,-,N/A,,Clear,270,2013-02-03 04:15:00
10:55 PM,44.6,35.6,71,30.31,10.0,West,4.6,-,N/A,,Clear,260,2013-02-03 04:55:00
11:15 PM,44.6,35.6,71,30.31,10.0,Calm,Calm,-,N/A,,Clear,0,2013-02-03 05:15:00
11:35 PM,42.8,35.6,76,30.31,10.0,Calm,Calm,-,N/A,,Clear,0,2013-02-03 05:35:00
11:55 PM,44.6,35.6,71,30.31,10.0,Calm,Calm,-,N/A,,Clear,0,2013-02-03 05:55:00